Tracking 19575 objects as of 19-Feb-2019
HD Live streaming from Space Station
objects crossing your sky now

COSMOS 2408

Track COSMOS 2408 now!
10-day predictions
COSMOS 2408 is classified as:


NORAD ID: 28419
Int'l Code: 2004-037A
Perigee: 1,477.4 km
Apogee: 1,502.6 km
Inclination: 82.5 °
Period: 115.6 minutes
Semi major axis: 7861 km
RCS: 0.961 m2 (medium)
Launch date: September 23, 2004
Source: Commonwealth of Independent States (former USSR) (CIS)
Launch site: PLESETSK MISSILE AND SPACE COMPLEX (PKMTR)

Store-dump communications for Russian government and military.
aabbcc
Your satellite tracking list
Your tracking list is empty




NASA's NSSDC Master Catalog

Two Line Element Set (TLE):
1 28419U 04037A   19049.73440858 +.00000032 +00000-0 +15520-3 0  9991
2 28419 082.4839 201.7414 0016009 016.1411 344.0179 12.45614875654971
Source of the keplerian elements: AFSPC